ゲーレルス第2彗星

78P/Gehrels 2 (2004)

English version
Home page
Updated on March 18, 2012

---------------------------------------------------------------------

・ プロフィール

・ 写真集

・ 軌道要素

Epoch 2004 Nov. 11.0 TT = JDT 2453320.5
T 2004 Oct. 27.05392 TT                                 MPC
q   2.0081524            (2000.0)            P               Q
n   0.13646969     Peri.  192.95721     +0.72598967     -0.68547397
a   3.7363301      Node   210.54800     +0.64027386     +0.70310056
e   0.4625335      Incl.    6.25279     +0.25097488     +0.18914291
P   7.22
From 4943 observations 1996 June 18-2012 Mar. 15, mean residual 0".6.
     Nongravitational parameters A1 = +0.76, A2 = -0.1245.

・ 星図

・ 光度変化

        m1 = -1   + 5 logΔ + 40   log r  [   ,  0]  (              〜2004年10月27日)
        m1 =  5.7 + 5 logΔ + 15.0 log r  [  0,240]  (2004年10月27日〜2005年 6月24日)
        m1 = -0.8 + 5 logΔ + 30.0 log r  [240,   ]  (2005年 6月24日〜               )

---------------------------------------------------------------------

軌道要素はM.P.E.C. 2012-F11に掲載されたものです。
星図は StellaNavigator Ver.2.0 for Windows (アストロアーツ 編著 / アスキー出版局刊) で作成したものです。
光度グラフはComet for Windowsで作成したものです。

---------------------------------------------------------------------

Copyright(C) Seiichi Yoshida (comet@aerith.net). All rights reserved.